Flag for U.S.A. Weather past 2 weeks in Inverness, Florida, U.S.A.

Now
84 °F

Warm.


Feels Like: 104 °F
Forecast: 74 / 86 °F
Wind: 8 mph from South

Location: The Villages

Current Time: Jul 31, 2015 at 10:21:11 AM

Latest Report: Jul 31, 2015 at 9:50 AM


Visibility: 9 mi

Pressure: 29.90 "Hg

Humidity: 100%

Dew point: 84 °F

Location of InvernessLocation

Historic Weather in Inverness — Graph

°F

Inverness temperature yesterday

Maximum temperature yesterday: 91 °F (at 2:10 PM)
Minimum temperature yesterday: 73 °F (at 12:10 AM)
Average temperature yesterday: 79 °F

Past Weeks' High & Low Weather Summary

 TemperatureHumidityPressure
High95 °F (Jul 29, 2:55 PM)100% (Jul 16, 9:10 AM)29.96 "Hg (Jul 16, 9:10 AM)
Low73 °F (Jul 17, 7:35 PM)100% (Jul 16, 9:10 AM)29.75 "Hg (Jul 25, 4:15 PM)
Average80 °F100%29.87 "Hg
* Reported Jul 16 9:10 AM — Jul 31 9:10 AM, Inverness, Weather by CustomWeather, © 2015

Note: Actual official high and low records may vary slightly from our data, if they occured in-between our weather recording intervals... More about our weather records

Advertising

Inverness weather history for previous 24 hours

 ConditionsComfort  
Time TempWeatherWind HumidityBarometerVisibility
9:10 AM
Fri, Jul 31
82 °FWarm.8 mph100%29.90 "Hg10 mi
8:50 AM81 °FWarm.7 mph100%29.90 "Hg9 mi
8:30 AM79 °FWarm.6 mph100%29.90 "Hg9 mi
8:10 AM79 °FFog.5 mph100%29.89 "Hg6 mi
7:50 AM77 °FWarm.5 mph100%29.89 "Hg10 mi
7:30 AM75 °FMild.3 mph100%29.88 "Hg10 mi
7:15 AM75 °FMild.No wind100%29.88 "Hg10 mi
6:50 AM75 °FFog.No wind100%29.87 "Hg6 mi
6:30 AM75 °FFog.No wind100%29.86 "Hg6 mi
6:10 AM75 °FMild.6 mph100%29.86 "Hg10 mi
5:55 AM75 °FMild.6 mph100%29.86 "Hg10 mi
5:30 AM75 °FMild.5 mph100%29.86 "Hg9 mi
5:10 AM75 °FMild.3 mph100%29.86 "Hg9 mi
4:50 AM75 °FMild.5 mph100%29.86 "Hg10 mi
4:30 AM75 °FMild.5 mph100%29.86 "Hg9 mi
4:10 AM75 °FMild.6 mph100%29.86 "Hg8 mi
3:30 AM75 °FMild.3 mph100%29.87 "Hg10 mi
3:10 AM75 °FMild.3 mph100%29.87 "Hg9 mi
2:50 AM75 °FMild.No wind100%29.86 "Hg10 mi
2:10 AM75 °FMild.No wind100%29.87 "Hg10 mi
1:50 AM75 °FMild.5 mph100%29.88 "Hg10 mi
1:30 AM75 °FMild.6 mph100%29.88 "Hg10 mi
1:10 AM75 °FMild.6 mph100%29.88 "Hg10 mi
12:50 AM75 °FMild.6 mph100%29.89 "Hg10 mi
11:50 PM
Thu, Jul 30
77 °FWarm.6 mph100%29.90 "Hg10 mi
11:10 PM77 °FWarm.5 mph100%29.90 "Hg10 mi
10:50 PM77 °FWarm.5 mph100%29.90 "HgN/A
10:10 PM77 °FWarm.No wind100%29.89 "Hg7 mi
9:50 PM77 °FWarm.No wind100%29.89 "Hg7 mi
9:30 PM77 °FWarm.No wind100%29.88 "Hg7 mi
9:10 PM77 °FWarm.No wind100%29.89 "Hg10 mi
8:55 PM75 °FMild.7 mph100%29.87 "Hg10 mi
8:30 PM75 °FMild.No wind100%29.87 "Hg10 mi
8:10 PM75 °FMild.6 mph100%29.87 "Hg10 mi
7:50 PM75 °FMild.No wind100%29.86 "Hg8 mi
7:30 PM75 °FMild.8 mph100%29.86 "Hg9 mi
7:10 PM77 °FWarm.8 mph100%29.86 "Hg10 mi
6:55 PM79 °FWarm.7 mph100%29.86 "Hg9 mi
6:30 PM79 °FWarm.6 mph100%29.85 "Hg10 mi
5:10 PM79 °FFog.No wind100%29.85 "Hg6 mi
4:55 PM79 °FWarm.6 mph100%29.84 "Hg8 mi
4:30 PM79 °FWarm.5 mph100%29.83 "Hg10 mi
4:10 PM79 °FWarm.No wind100%29.86 "Hg8 mi
3:50 PM79 °FWarm.5 mph100%29.86 "Hg7 mi
3:30 PM84 °FWarm.9 mph100%29.86 "Hg10 mi
3:15 PM86 °FWarm.5 mph100%29.85 "Hg10 mi
2:55 PM84 °FWarm.12 mph100%29.86 "Hg9 mi
2:30 PM88 °FWarm.12 mph100%29.86 "Hg10 mi
2:10 PM91 °FHot.8 mph100%29.86 "Hg10 mi
1:50 PM88 °FWarm.6 mph100%29.88 "Hg10 mi
1:35 PM88 °FWarm.No wind100%29.88 "Hg10 mi
1:15 PM90 °FHot.6 mph100%29.89 "Hg10 mi
12:55 PM88 °FWarm.6 mph100%29.89 "Hg10 mi
12:35 PM86 °FWarm.6 mph100%29.90 "Hg7 mi
12:10 PM84 °FFog.9 mph100%29.91 "Hg6 mi
11:50 AM84 °FFog.9 mph100%29.91 "Hg5 mi
11:10 AM86 °FWarm.6 mph100%29.91 "Hg10 mi
10:55 AM86 °FWarm.5 mph100%29.91 "Hg10 mi
10:10 AM84 °FWarm.8 mph100%29.91 "Hg10 mi
Weather by CustomWeather, © 2015

See weather overviewHow to use our weather pages